Welcome to the New NWS' Forecast!
Most changes are behind the scenes, but click here for differences you might notice.
Latest weather observations around

EW3298 Indio (E3298)

Using English Units (Switch to International System of Units)
Date/ Time (PST) Wind (mph) Vis. (mi) Weather Sky Cond. Temp (°F) Rel. Humidity Wind Chill (°F) Heat Index (°F) Pressure Precip. (in)
Air Dwpt 6 hour Altimeter (inHg) Sea level (inHg) 1 hr 3 hr 6 hr
Max Min
Jan 21 07:58 W 5   Clear   48 29     47% 46   30.27        
Jan 21 07:43 WNW 2   Clear   48 28     46%     30.25        
Jan 21 07:28 W 4   Clear   47 28     48% 45   30.24        
Jan 21 07:13 W 6   Clear   46 28     49% 43   30.24        
Jan 21 06:58 W 3   Clear   46 28     50% 45   30.24        
Jan 21 06:43 W 3   Clear   45 28     52% 44   30.24        
Jan 21 06:28 W 1   Clear   46 29     51%     30.23        
Jan 21 06:13 W 2   Clear   46 29     51%     30.22        
Jan 21 05:58 W 3   Clear   45 27     50% 44   30.21        
Jan 21 05:43 W 4   Clear   46 28     49% 44   30.21        
Jan 21 05:28 W 1   Clear   47 28     47%     30.2        
Jan 21 05:13 Calm   Clear   47 27     45%     30.2        
Jan 21 05:00 Calm   Clear   48 27     44%     30.19        
Jan 21 04:43 W 2   Clear   49 27     42%     30.19        
Jan 21 04:28 W 3   Clear   51 27     39%     30.19        
Jan 21 04:13 W 4   Clear   50 26     39% 49   30.19        
Jan 21 03:58 W 5   Clear   51 26     38%     30.18        
Jan 21 03:42 W 5   Clear   51 26     38%     30.18        
Jan 21 03:27 W 3   Clear   51 26     38%     30.17        
Jan 21 03:12 W 5   Clear   51 26     37%     30.17        
Jan 21 02:57 W 6   Clear   51 26     38%     30.17        
Jan 21 02:42 W 3   Clear   50 26     39% 50   30.16        
Jan 21 02:27 W 5   Clear   51 26     37%     30.16        
Jan 21 02:12 W 3   Clear   51 26     38%     30.16        
Jan 21 01:57 W 5   Clear   50 26     39% 48   30.16        
Jan 21 01:42 W 5   Clear   50 26     39% 48   30.16        
Jan 21 01:27 W 4   Clear   51 26     37%     30.15        
Jan 21 01:12 W 2   Clear   52 25     34%     30.14        
Jan 21 00:57 W 2   Clear   53 25     33%     30.14        
Jan 21 00:42 W 3   Clear   53 24     32%     30.14        
Jan 21 00:27 W 3   Clear   53 24     32%     30.13        
Jan 21 00:12 Calm   Clear   52 25     34%     30.13        
Jan 20 23:57 Calm   Clear   53 25     33%     30.13        
Jan 20 23:42 Calm   Clear   54 25     32%     30.12        
Jan 20 23:27 Calm   Clear   54 25     32%     30.12        
Jan 20 23:12 Calm   Clear   55 25     31%     30.12        
Jan 20 22:57 W 1   Clear   56 25     30%     30.11        
Jan 20 22:42 W 6   Clear   56 25     30%     30.1        
Jan 20 22:27 W 5   Clear   55 25     31%     30.09        
Jan 20 22:12 W 6   Clear   56 26     31%     30.09        
Jan 20 21:57 W 6   Clear   56 26     31%     30.08        
Jan 20 21:44 WNW 4   Clear   56 25     30%     30.07        
Jan 20 21:27 WNW 4   Clear   57 25     29%     30.07        
Jan 20 21:12 WNW 3   Clear   58 25     28%     30.07        
Jan 20 20:57 WNW 4   Clear   58 26     29%     30.06        
Jan 20 20:42 NW 3   Clear   58 27     30%     30.06        
Jan 20 20:27 NW 5   Clear   58 26     29%     30.05        
Jan 20 20:12 NW 4   Clear   59 27     29%     30.04        
Jan 20 19:56 WNW 4   Clear   58 28     31%     30.03        
Jan 20 19:42 Calm   Clear   58 28     31%     30.03        
Jan 20 19:26 NW 1   Clear   59 27     29%     30.02        
Jan 20 19:11 WNW 5   Clear   59 28     30%     30.01        
Jan 20 18:56 WNW 4   Clear   59 28     31%     30.01        
Jan 20 18:41 NW 5   Clear   59 28     31%     30        
Jan 20 18:26 WNW 4   Clear   60 28     30%     30        
Jan 20 18:11 WNW 5   Clear   60 28     29%     30        
Jan 20 17:56 WNW 5   Clear   60 28     29%     29.99        
Jan 20 17:41 NW 5   Clear   61 28     28%     29.99        
Jan 20 17:26 NW 4   Clear   61 30     31%     29.98        
Jan 20 17:11 WNW 5   Clear   61 31     32%     29.98        
Jan 20 16:56 WNW 6   Clear   62 30     30%     29.97        
Jan 20 16:41 WNW 9   Clear   62 29     28%     29.97        
Jan 20 16:26 W 12   Clear   64 28     26%     29.96        
Jan 20 16:11 W 12   Clear   64 26     24%     29.95        
Jan 20 15:56 NW 8   Clear   65 25     22%     29.94        
Jan 20 15:26 WNW 1   Clear   65 27     24%     29.93        
Jan 20 15:11 WNW 2   Clear   65 26     23%     29.93        
Jan 20 14:56 NW 1   Clear   65 26     23%     29.93        
Jan 20 14:41 Calm   Clear   65 27     24%     29.93        
Jan 20 14:27 NNW 1   Clear   65 27     24%     29.93        
Jan 20 14:11 Calm   Clear   65 28     25%     29.93        
Jan 20 13:56 WNW 7   Clear   64 27     25%     29.93        
Jan 20 13:41 WNW 3   Clear   64 27     25%     29.93        
Jan 20 13:26 NW 5   Clear   63 28     26%     29.92        
Jan 20 13:11 WNW 8   Clear   63 29     28%     29.93        
Jan 20 12:56 NW 9   Clear   63 29     28%     29.93        
Jan 20 12:41 W 10   Clear   62 29     29%     29.93        
Jan 20 12:26 W 8   Clear   63 29     27%     29.93        
Jan 20 12:11 WNW 7   Clear   63 29     27%     29.94        
Jan 20 11:56 WNW 7   Clear   62 28     27%     29.94        
Jan 20 11:41 WNW 4   Clear   62 31     31%     29.95        
Jan 20 11:26 W 8   Clear   61 29     29%     29.96        
Jan 20 11:11 NW 4   Clear   61 29     30%     29.97        
Jan 20 10:56 WNW 6   Clear   61 31     32%     29.97        
Jan 20 10:41 W 9   Clear   60 32     35%     29.97        
Jan 20 10:26 W 9   Clear   60 35     39%     29.98        
Jan 20 10:11 W 9   Clear   59 36     42%     29.98        
Jan 20 09:56 W 8   Clear   58 37     45%     29.98        
Jan 20 09:41 W 7   Clear   58 37     46%     29.98        
Jan 20 09:26 W 6   Clear   57 40     52%     29.97        
Jan 20 09:11 WNW 5   Clear   57 39     51%     29.97        
Jan 20 08:56 Calm   Clear   56 40     55%     29.96        
Jan 20 08:41 W 5   Clear   54 40     58%     29.96        
Jan 20 08:26 W 6   Clear   54 40     60%     29.95        
Jan 20 08:11 W 9   Clear   53 40     61%     29.94        
Jan 20 07:56 W 11   Clear   53 39     59%     29.93        
Jan 20 07:41 W 8   Clear   54 40     58%     29.93        
Jan 20 07:26 Calm   Clear   53 39     58%     29.91        
Jan 20 07:11 Calm   Clear   53 39     58%     29.91        
Jan 20 06:55 WNW 1   Clear   53 39     58%     29.9        
Jan 20 06:40 WNW 3   Clear   54 39     57%     29.89        
Jan 20 06:25 WNW 2   Clear   54 39     56%     29.89        
Jan 20 06:10 Calm   Clear   53 39     58%     29.88        
Jan 20 05:55 Calm   Clear   53 38     56%     29.88        
Jan 20 05:40 Calm   Clear   53 36     53%     29.87        
Jan 20 05:25 Calm   Clear   55 37     50%     29.87        
Jan 20 05:10 Calm   Clear   56 37     49%     29.86        
Jan 20 04:55 Calm   Clear   55 36     49%     29.86        
Jan 20 04:40 Calm   Clear   54 35     49%     29.86        
Jan 20 04:25 Calm   Clear   54 36     50%     29.86        
Jan 20 04:10 Calm   Clear   55 37     51%     29.85        
Jan 20 03:55 Calm   Clear   55 34     45%     29.85        
Jan 20 03:40 Calm   Clear   56 34     44%     29.85        
Jan 20 03:10 Calm   Clear   57 34     42%     29.85        
Jan 20 02:55 Calm   Clear   58 34     40%     29.85        
Jan 20 02:40 WNW 5   Clear   59 34     39%     29.85        
Jan 20 02:25 WNW 5   Clear   59 33     37%     29.85        
Jan 20 02:10 W 12   Clear   60 32     35%     29.85        
Jan 20 01:55 WSW 10   Clear   60 32     35%     29.84        
Jan 20 01:40 W 15   Clear   61 32     33%     29.83        
Jan 20 01:25 W 15   Clear   62 33     34%     29.84        
Jan 20 01:10 WNW 14   Clear   62 34     35%     29.82        
Jan 20 00:58 W 14   Clear   63 36     36%     29.81        
Jan 20 00:40 W 13   Clear   63 38     40%     29.81        
Jan 20 00:10 W 3   Clear   64 39     39%     29.82        
Jan 20 00:09 W 3   Clear   64 39     39%     29.82        
Jan 19 23:54 Calm   Clear   64 41     43%     29.82        
Jan 19 23:39 Calm   Clear   63 46     54%     29.82        
Jan 19 23:24 Calm   Clear   63 46     54%     29.81        
Jan 19 23:09 NNW 5   Clear   63 46     54%     29.81        
Jan 19 22:54 Calm   Clear   63 47     55%     29.81        
Jan 19 22:39 Calm   Clear   64 47     54%     29.82        
Jan 19 22:24 W 1   Clear   65 46     50%     29.81        
Jan 19 22:09 WNW 7   Clear   65 46     51%     29.8        
Jan 19 21:54 WNW 4   Clear   66 47     51%     29.81        
Jan 19 21:39 WNW 4   Clear   66 47     50%     29.81        
Jan 19 21:24 W 1   Clear   67 47     49%     29.81        
Jan 19 21:09 WSW 11   Clear   68 45     43%     29.81        
Jan 19 20:54 WNW 6   Clear   67 47     48%     29.8        
Jan 19 20:39 Calm   Clear   66 46     49%     29.81        
Jan 19 20:24 NNW 5   Clear   67 48     50%     29.81        
Jan 19 20:09 NW 4   Clear   67 46     47%     29.81        
Jan 19 19:54 W 3   Clear   68 46     45%     29.81        
Jan 19 19:39 W 2   Clear   68 45     43%     29.81        
Jan 19 19:24 WSW 6   Clear   69 42     38%     29.8        
Jan 19 19:09 Calm   Clear   68 44     42%     29.81        
Jan 19 18:54 NW 3   Clear   69 44     41%     29.8        
Jan 19 18:39 WNW 4   Clear   68 43     40%     29.81        
Jan 19 18:24 Calm   Clear   68 42     39%     29.8        
Jan 19 18:09 Calm   Clear   67 39     36%     29.8        
Jan 19 17:54 Calm   Clear   68 39     35%     29.8        
Jan 19 17:41 Calm   Clear   68 38     33%     29.8        
Jan 19 17:24 Calm   Clear   69 38     32%     29.8        
Jan 19 17:09 Calm   Clear   70 38     31%     29.8        
Jan 19 16:54 Calm   Clear   70 36     29%     29.8        
Jan 19 16:39 Calm   Clear   71 38     30%   69 29.8        
Jan 19 16:24 Calm   Clear   71 37     29%   69 29.8        
Jan 19 16:09 Calm   Clear   71 37     29%   69 29.8        
Jan 19 15:54 Calm   Clear   71 37     29%   69 29.8        
Jan 19 15:39 Calm   Clear   72 38     29%   70 29.8        
Jan 19 15:24 SE 4   Clear   71 38     30%   69 29.81        
Jan 19 15:09 SE 3   Clear   72 39     30%   70 29.8        
Jan 19 14:54 Calm   Clear   71 38     30%   69 29.81        
Jan 19 14:39 SE 1   Clear   71 38     30%   69 29.82        
Jan 19 14:24 SE 2   Clear   71 39     31%   69 29.82        
Jan 19 14:09 SE 2   Clear   71 40     32%   69 29.83        
Jan 19 13:54 SE 2   Clear   71 40     33%   69 29.84        
Jan 19 13:39 SE 2   Clear   70 41     35%     29.84        
Jan 19 13:24 SE 5   Clear   70 41     35%     29.85        
Jan 19 13:09 SE 4   Clear   69 41     36%     29.85        
Jan 19 12:54 SE 6   Clear   69 42     37%     29.86        
Jan 19 12:39 SE 5   Clear   69 42     38%     29.87        
Jan 19 12:23 SE 4   Clear   68 45     43%     29.88        
Jan 19 12:08 SE 4   Clear   68 46     46%     29.9        
Jan 19 11:53 SE 2   Clear   67 44     44%     29.91        
Jan 19 11:38 SE 5   Clear   67 44     43%     29.92        
Jan 19 11:23 SE 1   Clear   66 45     47%     29.93        
Jan 19 11:08 SE 3   Clear   66 46     49%     29.94        
Jan 19 10:53 SE 3   Clear   65 47     52%     29.95        
Jan 19 10:38 Calm   Clear   64 47     55%     29.96        
Jan 19 10:25 SE 1   Clear   64 48     57%     29.96        
Jan 19 10:08 Calm   Clear   63 48     58%     29.96        
Jan 19 09:53 SE 4   Clear   62 47     59%     29.97        
Jan 19 09:38 Calm   Clear   61 47     61%     29.97        
Jan 19 09:23 Calm   Clear   60 47     62%     29.97        
Jan 19 09:08 Calm   Clear   60 47     63%     29.97        
Jan 19 08:53 Calm   Clear   59 46     63%     29.97        
Jan 19 08:38 Calm   Clear   58 45     63%     29.97        
Jan 19 08:23 Calm   Clear   57 43     59%     29.96        
Jan 19 08:08 Calm   Clear   56 43     61%     29.96        
Jan 19 07:53 Calm   Clear   55 44     66%     29.95        
Jan 19 07:38 Calm   Clear   52 43     71%     29.95        
Jan 19 07:08 Calm   Clear   50 42     74%     29.95        
Jan 19 06:53 Calm   Clear   50 42     73%     29.94        
Jan 19 06:38 Calm   Clear   50 42     73%     29.94        
Jan 19 06:23 Calm   Clear   50 42     73%     29.94        
Jan 19 06:08 Calm   Clear   51 42     72%     29.94        
Jan 19 05:53 Calm   Clear   51 42     70%     29.94        
Jan 19 05:38 Calm   Clear   52 42     69%     29.94        
Jan 19 05:23 Calm   Clear   53 42     67%     29.94        
Jan 19 05:08 Calm   Clear   53 43     68%     29.94        
Jan 19 04:53 Calm   Clear   52 43     70%     29.94        
Jan 19 04:38 Calm   Clear   52 43     70%     29.94        
Jan 19 04:23 Calm   Clear   52 43     70%     29.94        
Jan 19 04:08 Calm   Clear   52 42     69%     29.94        
Jan 19 03:53 Calm   Clear   52 42     69%     29.94        
Jan 19 03:38 Calm   Clear   52 42     69%     29.94        
Jan 19 03:23 Calm   Clear   53 43     69%     29.94        
Jan 19 03:08 Calm   Clear   53 43     68%     29.95        
Jan 19 02:52 Calm   Clear   53 42     67%     29.95        
Jan 19 02:37 Calm   Clear   54 43     65%     29.95        
Jan 19 02:22 Calm   Clear   55 43     64%     29.96        
Jan 19 02:07 Calm   Clear   55 43     64%     29.96        
Jan 19 01:52 Calm   Clear   55 42     62%     29.96        
Jan 19 01:37 Calm   Clear   56 42     60%     29.96        
Jan 19 01:22 Calm   Clear   56 42     60%     29.96        
Jan 19 01:07 Calm   Clear   56 42     60%     29.97        
Jan 19 00:52 Calm   Clear   56 43     62%     29.97        
Jan 19 00:37 Calm   Clear   56 44     63%     29.98        
Jan 19 00:22 Calm   Clear   56 43     62%     29.98        
Jan 19 00:07 Calm   Clear   56 43     61%     29.98        
Jan 18 23:52 Calm   Clear   57 44     61%     29.98        
Jan 18 23:37 Calm   Clear   57 43     60%     29.98        
Jan 18 23:22 Calm   Clear   58 44     59%     29.99        
Jan 18 23:07 Calm   Clear   58 43     58%     30        
Jan 18 22:52 Calm   Clear   59 43     56%     30        
Jan 18 22:37 Calm   Clear   60 43     53%     30.01        
Jan 18 22:22 Calm   Clear   61 43     51%     30.01        
Jan 18 22:07 Calm   Clear   60 43     53%     30.01        
Jan 18 21:52 Calm   Clear   61 44     53%     30.01        
Jan 18 21:37 SE 1   Clear   61 42     50%     30.01        
Jan 18 21:22 Calm   Clear   61 42     49%     30.01        
Jan 18 21:07 Calm   Clear   61 42     50%     30.01        
Jan 18 20:52 Calm   Clear   61 43     51%     30.02        
Jan 18 20:37 Calm   Clear   61 42     50%     30.01        
Jan 18 20:22 Calm   Clear   62 42     48%     30.01        
Jan 18 20:07 Calm   Clear   63 42     46%     30.01        
Jan 18 19:53 Calm   Clear   64 42     45%     30.01        
Jan 18 19:37 Calm   Clear   64 42     44%     30.01        
Jan 18 19:22 Calm   Clear   65 42     43%     30.01        
Jan 18 19:07 Calm   Clear   65 41     42%     30.01        
Jan 18 18:52 Calm   Clear   66 41     40%     30.01        
Jan 18 18:37 Calm   Clear   66 40     39%     30.01        
Jan 18 18:22 Calm   Clear   68 41     38%     30        
Jan 18 18:07 Calm   Clear   68 41     37%     30        
Jan 18 17:52 Calm   Clear   69 41     36%     30        
Jan 18 17:37 Calm   Clear   70 40     34%     30        
Jan 18 17:22 Calm   Clear   71 40     32%   69 30.01        
Jan 18 17:07 Calm   Clear   72 40     31%   70 30.01        
Jan 18 16:52 Calm   Clear   72 39     30%   70 30        
Jan 18 16:37 Calm   Clear   73 39     29%   71 30.01        
Jan 18 16:22 Calm   Clear   74 40     29%   72 30.01        
Jan 18 16:07 Calm   Clear   74 39     28%   72 30.02        
Jan 18 15:52 Calm   Clear   74 38     27%   72 30.02        
Jan 18 15:37 SE 1   Clear   74 38     27%   72 30.02        
Jan 18 15:22 SE 2   Clear   74 38     27%   72 30.02        
Jan 18 15:07 SE 3   Clear   75 39     27%   73 30.02        
Jan 18 14:52 Calm   Clear   75 40     28%   74 30.02        
Jan 18 14:37 SSE 3   Clear   75 38     26%   73 30.03        
Jan 18 14:22 SSE 1   Clear   75 39     27%   73 30.03        
Jan 18 14:07 SE 2   Clear   75 40     28%   74 30.03        
Jan 18 13:52 SSE 3   Clear   75 41     29%   74 30.03        
Jan 18 13:36 SSE 5   Clear   75 41     29%   74 30.03        
Jan 18 13:06 SSE 6   Clear   75 41     29%   74 30.05        
Jan 18 12:51 Calm   Clear   74 40     29%   72 30.06        
Jan 18 12:37 SSE 2   Clear   74 41     30%   73 30.07        
Jan 18 12:21 Calm   Clear   73 40     30%   71 30.08        
Jan 18 12:06 Calm   Clear   73 41     31%   71 30.09        
Jan 18 11:51 Calm   Clear   73 41     31%   71 30.1        
Jan 18 11:36 Calm   Clear   73 41     31%   71 30.11        
Jan 18 11:21 Calm   Clear   72 41     32%   70 30.12        
Jan 18 11:06 Calm   Clear   70 40     34%     30.13        
Jan 18 10:51 Calm   Clear   70 41     35%     30.14        
Jan 18 10:36 Calm   Clear   69 42     37%     30.15        
Jan 18 10:21 Calm   Clear   68 41     38%     30.16        
Jan 18 10:06 Calm   Clear   67 42     40%     30.16        
Jan 18 09:51 Calm   Clear   66 42     41%     30.17        
Jan 18 09:36 Calm   Clear   64 42     44%     30.17        
Jan 18 09:21 Calm   Clear   63 44     49%     30.17        
Jan 18 09:06 Calm   Clear   61 42     50%     30.17        
Jan 18 08:51 Calm   Clear   60 43     54%     30.16        
Jan 18 08:36 Calm   Clear   59 44     57%     30.16        
Jan 18 08:20 Calm   Clear   57 43     60%     30.15        
Jun 12 04:49 WNW 5   Clear   66 46     48%     29.83        
Jun 11 22:31 NNW 12   Clear   69 47     45%     29.79        
Jun 11 21:16 NW 10   Clear   72 47     41%   71 29.75        
Jun 11 19:01 NW 9   Clear   81 47     30%   80 29.69        
Jun 11 17:00 NW 9   Clear   86 43     22%   83 29.66        
Jun 11 16:30 NW 9   Clear   87 45     23%   84 29.67        
Jun 11 16:16 NNW 8   Clear   87 46     24%   84 29.67        
Jun 11 15:16 NW 11   Clear   86 44     23%   83 29.68        
Jun 11 12:45 NW 11   Clear   83 47     28%   81 29.72        
Jun 11 11:30 NW 7   Clear   81 47     31%   80 29.72        
Jun 11 10:30 WNW 9   Clear   79 47     33%   78 29.72        
Jun 11 05:14 WNW 2   Clear   67 47     48%     29.66        
Jun 11 04:59 NW 6   Clear   68 48     48%     29.65        
Jun 11 03:44 WNW 6   Clear   69 48     48%     29.64        
Jun 11 00:13 NW 9   Clear   73 50     44%   72 29.63        
Jun 10 22:13 NNW 13   Clear   75 50     42%   74 29.63        
Jun 10 21:43 NW 11   Clear   77 51     40%   76 29.62        
Jun 10 21:13 NNW 8   Clear   78 50     38%   77 29.62        
Jun 10 19:13 NW 11   Clear   85 52     32%   83 29.6        
Jun 10 18:28 NW 8   Clear   88 51     28%   85 29.59        
Jun 10 17:43 NW 16   Clear   90 47     23%   87 29.59        
Jun 10 16:43 WNW 5   Clear   94 41     16%   90 29.59        
Jun 10 14:43 WNW 2   Clear   94 41     16%   90 29.63        
Jun 10 10:14 W 4   Clear   85 47     27%   83 29.7        
Jun 10 09:12 WNW 7   Clear   83 47     28%   81 29.7        
Jun 09 21:56 NW 8   Clear   82 52     36%   81 29.67        
Jun 09 17:11 NW 2   Clear   99 51     20%   96 29.62        
Jun 09 14:25 Calm   Clear   99 40     13%   94 29.68        
Jun 09 13:55 WNW 4   Clear   99 40     13%   94 29.68        
Jun 09 07:39 W 2   Clear   79 50     37%   78 29.75        
Jun 09 02:54 WNW 9   Clear   80 42     26%   79 29.73        
Jun 09 00:39 NW 3   Clear   83 32     16%   80 29.73        
Jun 08 15:23 W 5   Clear   101 41     13%   96 29.72        
Jun 08 14:38 Calm   Clear   99 45     16%   95 29.74        
Jun 08 13:23 NW 1   Clear   95 45     18%   91 29.78        
Jun 08 12:07 Calm   Clear   91 51     26%   88 29.83        
Jun 08 08:07 Calm   Clear   77 55     47%   77 29.85        
Jun 08 07:52 Calm   Clear   76 55     48%   76 29.84        
Jun 08 06:52 Calm   Clear   74 56     54%   74 29.81        
Jun 08 05:36 WNW 2   Clear   73 55     53%   72 29.79        
Jun 08 03:51 W 10   Clear   75 55     49%   75 29.77        
Jun 08 02:36 WNW 9   Clear   77 54     45%   77 29.76        
Jun 07 23:51 WNW 7   Clear   82 54     38%   81 29.75        
Jun 07 22:51 WNW 6   Clear   84 56     38%   83 29.75        
Jun 07 20:06 Calm   Clear   95 43     17%   91 29.7        
Jun 07 15:50 SE 3   Clear   97 42     15%   93 29.73        
Jun 07 12:20 Calm   Clear   91 49     24%   88 29.81        
Jun 07 12:05 ESE 1   Clear   91 50     25%   88 29.82        
Jun 07 09:19 Calm   Clear   83 58     42%   83 29.83        
Notice The following observation data may not be complete
Jun 07 09:04 Calm   Clear     58      %     29.83        
Jun 06 07:32 Calm   Clear   81 55     41%   81 29.8        
Jun 06 07:17 Calm   Clear   81 55     41%   81 29.8        
Jun 06 07:02 Calm   Clear   80 55     42%   80 29.79        
Jun 05 23:46 Calm   Clear   87 55     34%   85 29.73        
Jun 05 22:46 Calm   Clear   90 53     29%   88 29.72        
Jun 05 20:46 Calm   Clear   97 54     24%   95 29.67        
Jun 05 20:31 Calm   Clear   98 55     24%   96 29.66        
Jun 05 15:46 S 7   Clear   102 46     15%   98 29.66        
Jun 05 15:01 Calm   Clear   103 46     15%   99 29.67        
Jun 05 14:46 SW 5   Clear   103 46     15%   99 29.67